Weather in Švenčionėlių

Lithuania     55°09′38″N   26°00′09″E
temp.,
°C
wind,
m/s
gust,
m/s
humid.,
%
clouds,
%
prec.,
mm/h
press.,
hPa
HPBL,
m
6 august, fri
fri600:00+11ne41096100 0.0 1011491
03:00+13ene4984100 0.0 1010544
06:00+12ne61394100 0.0 1008521
09:00+12ne61497100 2.1 1007635
12:00+13ne71697100 9.8 1004756
15:00+13ene51398100 20.9 1004798
18:00+14ene51198100 1.0 1002679
21:00+15ene51098100 1.1 1000555
7 august, sat
sat700:00+16e4899100 1.0 1000443
03:00+15sse479893 1.3 1000389
06:00+14se3698100 0.0 1001441
09:00+13sse4798100 0.2 1001513
12:00+14sse4795100 0.1 1002607
15:00+14sse3695100 0.1 1003640
18:00+14ssw2698100 0.1 1004510
21:00+14wsw389860 0.6 1006383
8 august, sun
sun800:00+15wsw4998100 0.0 1008541
03:00+15wsw3899100 0.1 1010438
06:00+14sw3798100 0.0 1011304
09:00+16sw348575 0.0 1012342
12:00+22s3457100 0.0 1012877
15:00+23sse4654100 0.0 10121188
18:00+24sse4962100 0.0 10111184
21:00+20sse4137494 0.1 1011550
9 august, mon
mon900:00+18ssw41095100 0.3 1012467
03:00+16sw4994100 0.3 1014539
06:00+16wsw399295 0.0 1015564
09:00+17wsw4882100 0.0 1017627
12:00+22wsw475778 0.0 10171580
15:00+22sw56558 0.3 10181460
18:00+22wsw35595 0.5 10181212
21:00+17sw22820 0.7 101927
10 august, tue
tue1000:00+14wnw22920 0.0 102021
03:00+13w119461 0.0 102010
06:00+12sw1194100 0.0 102010
09:00+17ssw1178100 0.0 1020212
12:00+19ssw2268100 0.0 1019501
15:00+21wsw126191 0.5 1019565
18:00+22sse1150100 0.0 10181226
21:00+16sse22796 0.0 101712